Location: Newark
(44.4156°N, 12.1972°E)
Time: 03:50:35
(UTC+00:00)

STARLINK-1086 - Pass Details

Date: 30 January 2020
Orbit: 349 x 351 km, 53.0° (Epoch: 21 February)

Event Time Altitude Azimuth Distance (km) Brightness Sun altitude
Rises 17:58:56 0° 303° (WNW) 2,181 7.5 -18.3°
Reaches altitude 10° 18:00:58 10° 303° (WNW) 1,334 6.3 -18.7°
Enters shadow 18:03:49 79° 271° (W) 367 2.7 -19.2°
